Regional Weather Roundup
Issued by NWS

Home | Current Version | Previous Version | Graphics & Text | Print | Product List | Glossary On
Versions: 1 2 3 4 5 6 7 8 9 10 11 12 13 14 15 16 17 18 19 20 21 22 23 24 25 26 27 28 29 30 31 32 33 34 35 36 37 38 39 40 41 42 43 44 45 46 47 48 49 50
000
ASUS45 KSLC 031710
RWRUT

UTAH REGIONAL WEATHER ROUNDUP
NATIONAL WEATHER SERVICE SALT LAKE CITY UT
1100 AM MDT FRI JUL 03 2015

UTZ001>011-023>025-031800-

NORTHERN UTAH

CITY           SKY/WX    TMP DP  RH WIND       PRES   REMARKS
BRIGHAM CITY   SUNNY     83  47  28 NE5       30.04S
HILL AFB       MOSUNNY   85  49  28 E10       30.07S
LOGAN          SUNNY     79  48  33 N7        30.05F
OGDEN          SUNNY     88  44  21 S8        30.04S
PROVO AIRPORT  MOSUNNY   84  48  28 NE3       30.07F
SALT LAKE CITY MOSUNNY   89  47  23 SE6       30.02S
VERNAL         SUNNY     84  42  22 VRB5      30.12F
WENDOVER       MOSUNNY   88  46  23 SE6       30.04S
HEBER CITY     SUNNY     79  41  25 CALM      30.16F
WEST JORDAN    SUNNY     88  46  23 SE9       30.06F

$$

UTZ012>022-026-027-031800-

SOUTHERN/CENTRAL UTAH

CITY           SKY/WX    TMP DP  RH WIND       PRES   REMARKS
BLANDING       MOSUNNY   76  54  46 SE13      30.28F
BRYCE CANYON   CLOUDY    71  54  54 NE3       30.32S
CEDAR CITY     CLOUDY    82  52  35 N7        30.16S
DELTA          MOSUNNY   85  46  25 SW9       30.09S
HANKSVILLE     PTSUNNY   90  43  19 SW6       30.05S
MILFORD        CLOUDY    78  55  44 S8        30.11F
MOAB/CYNLANDS  SUNNY     90  51  26 E9        30.02F
PRICE          MOSUNNY   87  40  19 SW8       30.14S
ST GEORGE      SUNNY     90  54  29 S3        29.97F
KANAB          PTSUNNY   82  55  39 S5        30.16F

$$

REGIONAL REPORTS     COLORADO/ARIZONA

CITY           SKY/WX    TMP DP  RH WIND       PRES   REMARKS
CRAIG, CO      SUNNY     81  45  28 CALM      30.19F
GRAND JUNCTION SUNNY     87  49  26 S13       30.07F
RIFLE          SUNNY     83  45  26 N5        30.13F
MONTROSE       SUNNY     85  45  24 E8        30.17F
CORTEZ         SUNNY     81  54  39 S15       30.22S
PAGE, AZ       CLOUDY    84  51  31 NW5       30.05S
GRAND CANYON     N/A    N/A N/A N/A MISG        N/A
KINGMAN        SUNNY     95  50  21 SW14      30.03R HX  92
FLAGSTAFF      PTSUNNY   71  55  56 S13       30.31S

$$

REGIONAL REPORTS    NEVADA/IDAHO/WYOMING

CITY           SKY/WX    TMP DP  RH WIND       PRES   REMARKS
LAS VEGAS, NV  PTSUNNY   98  51  20 S6        29.86F HX  95
ELY            PTSUNNY   78  48  34 CALM      30.22F
ELKO           CLOUDY    77  50  38 VRB3      30.14F
POCATELLO, ID  SUNNY     84  48  28 W14       30.05F
BURLEY         SUNNY     84  46  26 W7        30.02S
EVANSTON, WY   SUNNY     77  40  26 NW3       30.27F
ROCK SPRINGS   SUNNY     75  51  43 CALM      30.25F
KEMMERER       SUNNY     77  45  31 SE8       30.28S

$$


USA.gov is the U.S. government's official web portal to all federal, state and local government web resources and services.